Location: *
(33.8649°S, 62.1526°E)
Time: 12:58:21
(UTC+00:00)

ATLAS 3B R/B - Pass Details

Date: 17 January 2021
Orbit: 1006 x 1189 km, 63.8° (Epoch: 26 February)

Event Time Altitude Azimuth Distance (km) Brightness Sun altitude
Rises 16:08:31 0° 347° (NNW) 4,054 5.5 -12.3°
Reaches altitude 10° 16:11:17 10° 351° (N) 3,106 4.9 -12.7°
Maximum altitude 16:18:33 55° 66° (ENE) 1,411 3.0 -14.0°
Drops below altitude 10° 16:25:48 10° 141° (SE) 3,112 5.1 -15.1°
Sets 16:28:35 0° 144° (SE) 4,063 5.8 -15.6°
